This is the latest recevied weather packets stored in our database for station/object KB9PMA-1. If no packets are shown the sender has not sent any weather packets the latest 10 day(s).
| Time | Temp. | Humidity | Pressure | Rain* | Wind** | Luminosity | Snow |
|---|---|---|---|---|---|---|---|
| 1777493593 | 15° C | 66% | 1012.8 hPa | 0 mm | - | - | - |
| 1777493293 | 15° C | 65% | 1012.8 hPa | 0 mm | - | - | - |
| 1777492993 | 15.56° C | 65% | 1012.7 hPa | 0 mm | - | - | - |
| 1777492693 | 15.56° C | 62% | 1012.6 hPa | 0 mm | - | - | - |
| 1777492393 | 15.56° C | 65% | 1012.5 hPa | 0 mm | - | - | - |
| 1777492093 | 16.11° C | 60% | 1012.5 hPa | 0 mm | - | - | - |
| 1777491793 | 16.67° C | 62% | 1012.4 hPa | 0 mm | - | - | - |
| 1777491493 | 16.11° C | 64% | 1012.4 hPa | 0 mm | - | - | - |
| 1777491193 | 16.11° C | 64% | 1012.3 hPa | 0 mm | - | - | - |
| 1777490893 | 16.11° C | 65% | 1012.4 hPa | 0 mm | - | - | - |
| 1777490593 | 16.11° C | 61% | 1012.3 hPa | 0 mm | - | - | - |
| 1777490293 | 16.11° C | 64% | 1012.4 hPa | 0 mm | - | - | - |
| 1777489993 | 16.11° C | 61% | 1012.4 hPa | 0 mm | - | - | - |
| 1777489693 | 16.11° C | 64% | 1012.3 hPa | 0 mm | - | - | - |
| 1777489393 | 16.11° C | 64% | 1012.3 hPa | 0 mm | - | - | - |
| 1777489093 | 16.11° C | 65% | 1012.2 hPa | 0 mm | - | - | - |
| 1777488793 | 16.11° C | 65% | 1012.1 hPa | 0 mm | - | - | - |
| 1777488493 | 15.56° C | 65% | 1012.1 hPa | 0 mm | - | - | - |
| 1777488193 | 15.56° C | 71% | 1012.1 hPa | 0 mm | - | - | - |
| 1777487893 | 15° C | 74% | 1012.1 hPa | 0 mm | - | - | - |
| 1777487593 | 15° C | 72% | 1012.2 hPa | 0 mm | - | - | - |
| 1777487293 | 15.56° C | 72% | 1012.1 hPa | 0 mm | - | - | - |
| 1777486993 | 15.56° C | 74% | 1012.1 hPa | 0 mm | - | - | - |
| 1777486693 | 15.56° C | 72% | 1011.9 hPa | 0 mm | - | - | - |
| 1777486393 | 16.11° C | 71% | 1011.9 hPa | 0 mm | - | - | - |
* Rain latest hour (hover to see other rain measurements)
** Current wind speed in m/s (hover to see current wind gust speed)